• In Czech Republic
  • List of Countries
  • For 7 days
  • Water Temperature
  • Satellite Maps
  • Weather Map
  • Weather Widgets
  • user-avatar
    Login

    Hourly Weather Nevşehir

    Today, 22 October, Sunday

    Time Temperature Precipitation Wind Pressure Humidity
    00:00 +12°C° 0 mm 1 mps 657 mmHg 31%
    01:00 +11°C° 0 mm 1 mps 656 mmHg 31%
    02:00 +11°C° 0 mm 1 mps 656 mmHg 31%
    03:00 +10°C° 0 mm 1 mps 656 mmHg 31%
    04:00 +10°C° 0 mm 1 mps 656 mmHg 32%
    05:00 +10°C° 0 mm 1 mps 655 mmHg 33%
    06:00 +12°C° 0 mm 1 mps 656 mmHg 29%
    07:00 +13°C° 0 mm 1 mps 657 mmHg 26%
    08:00 +15°C° 0 mm 1 mps 657 mmHg 22%
    09:00 +18°C° 0 mm 1 mps 658 mmHg 22%
    10:00 +18°C° 0 mm 2 mps 658 mmHg 21%
    11:00 +20°C° 0 mm 2 mps 658 mmHg 20%
    12:00 +20°C° 0 mm 3 mps 658 mmHg 19%
    13:00 +21°C° 0 mm 3 mps 658 mmHg 19%
    14:00 +21°C° 0 mm 4 mps 658 mmHg 18%
    15:00 +20°C° 0 mm 3 mps 657 mmHg 21%
    16:00 +18°C° 0 mm 3 mps 657 mmHg 23%
    17:00 +17°C° 0 mm 2 mps 656 mmHg 26%
    18:00 +15°C° 0 mm 2 mps 656 mmHg 28%
    19:00 +14°C° 0 mm 1 mps 656 mmHg 31%
    20:00 +13°C° 0 mm 1 mps 656 mmHg 34%
    21:00 +12°C° 0 mm 1 mps 656 mmHg 36%
    22:00 +12°C° 0 mm 1 mps 656 mmHg 37%
    23:00 +10°C° 0 mm 0 mps 656 mmHg 39%

    Tomorrow, 23 October, Monday

    Time Temperature Precipitation Wind Pressure Humidity
    00:00 +10°C° 0 mm 0 mps 656 mmHg 40%
    01:00 +9°C° 0 mm 0 mps 656 mmHg 41%
    02:00 +9°C° 0 mm 0 mps 655 mmHg 41%
    03:00 +9°C° 0 mm 1 mps 655 mmHg 42%
    04:00 +9°C° 0 mm 1 mps 655 mmHg 43%
    05:00 +9°C° 0 mm 1 mps 655 mmHg 43%
    06:00 +11°C° 0 mm 1 mps 655 mmHg 38%
    07:00 +13°C° 0 mm 1 mps 656 mmHg 33%
    08:00 +15°C° 0 mm 1 mps 657 mmHg 28%
    09:00 +16°C° 0 mm 1 mps 657 mmHg 26%
    10:00 +19°C° 0 mm 1 mps 657 mmHg 23%
    11:00 +19°C° 0 mm 2 mps 657 mmHg 21%
    12:00 +20°C° 0 mm 2 mps 657 mmHg 19%
    13:00 +21°C° 0 mm 2 mps 657 mmHg 18%
    14:00 +21°C° 0 mm 2 mps 656 mmHg 17%
    15:00 +20°C° 0 mm 2 mps 656 mmHg 20%
    16:00 +18°C° 0 mm 2 mps 655 mmHg 23%
    17:00 +17°C° 0 mm 2 mps 655 mmHg 25%
    18:00 +16°C° 0 mm 2 mps 655 mmHg 30%
    19:00 +15°C° 0 mm 2 mps 655 mmHg 34%
    20:00 +14°C° 0 mm 2 mps 655 mmHg 38%
    21:00 +14°C° 0 mm 2 mps 655 mmHg 43%
    22:00 +13°C° 0 mm 2 mps 655 mmHg 48%
    23:00 +12°C° 0 mm 3 mps 655 mmHg 53%

    Day after tomorrow, 24 October, Tuesday

    Time Temperature Precipitation Wind Pressure Humidity
    00:00 +11°C° 0 mm 3 mps 655 mmHg 57%
    01:00 +12°C° 0 mm 2 mps 654 mmHg 60%
    02:00 +10°C° 0 mm 2 mps 654 mmHg 64%
    03:00 +10°C° 0 mm 2 mps 654 mmHg 66%
    04:00 +9°C° 0 mm 2 mps 654 mmHg 68%
    05:00 +9°C° 0 mm 2 mps 654 mmHg 70%
    06:00 +10°C° 0 mm 2 mps 654 mmHg 63%
    07:00 +11°C° 0 mm 3 mps 655 mmHg 57%
    08:00 +13°C° 0 mm 3 mps 656 mmHg 50%
    09:00 +16°C° 0 mm 3 mps 656 mmHg 43%
    10:00 +18°C° 0 mm 4 mps 656 mmHg 35%
    11:00 +20°C° 0 mm 4 mps 657 mmHg 28%
    12:00 +21°C° 0 mm 5 mps 656 mmHg 26%
    13:00 +21°C° 0 mm 5 mps 656 mmHg 24%
    14:00 +22°C° 0 mm 5 mps 656 mmHg 23%
    15:00 +20°C° 0 mm 4 mps 656 mmHg 26%
    16:00 +19°C° 0 mm 4 mps 656 mmHg 29%
    17:00 +17°C° 0 mm 3 mps 655 mmHg 33%
    18:00 +16°C° 0 mm 3 mps 655 mmHg 37%
    19:00 +14°C° 0 mm 3 mps 656 mmHg 41%
    20:00 +14°C° 0 mm 2 mps 656 mmHg 46%
    21:00 +13°C° 0 mm 2 mps 656 mmHg 48%
    22:00 +13°C° 0 mm 2 mps 656 mmHg 51%
    23:00 +12°C° 0 mm 2 mps 656 mmHg 53%

    25 October, Wednesday

    Time Temperature Precipitation Wind Pressure Humidity
    00:00 +12°C° 0 mm 2 mps 656 mmHg 55%
    01:00 +11°C° 0 mm 1 mps 656 mmHg 57%
    02:00 +11°C° 0 mm 1 mps 656 mmHg 59%
    03:00 +10°C° 0 mm 1 mps 656 mmHg 60%
    04:00 +10°C° 0 mm 1 mps 656 mmHg 62%
    05:00 +9°C° 0 mm 1 mps 656 mmHg 63%
    06:00 +11°C° 0 mm 1 mps 656 mmHg 57%
    07:00 +13°C° 0 mm 2 mps 657 mmHg 51%
    08:00 +14°C° 0 mm 2 mps 658 mmHg 45%
    09:00 +16°C° 0 mm 2 mps 658 mmHg 40%
    10:00 +17°C° 0 mm 3 mps 659 mmHg 35%
    11:00 +19°C° 0 mm 3 mps 659 mmHg 30%
    12:00 +20°C° 0 mm 3 mps 659 mmHg 29%
    13:00 +20°C° 0 mm 3 mps 659 mmHg 28%
    14:00 +20°C° 0 mm 3 mps 659 mmHg 27%
    15:00 +19°C° 0 mm 2 mps 659 mmHg 32%
    16:00 +18°C° 0 mm 2 mps 658 mmHg 36%
    17:00 +17°C° 0 mm 2 mps 658 mmHg 41%
    18:00 +16°C° 0 mm 2 mps 658 mmHg 45%
    19:00 +15°C° 0 mm 2 mps 659 mmHg 49%
    20:00 +14°C° 0 mm 1 mps 659 mmHg 53%
    21:00 +14°C° 0 mm 2 mps 659 mmHg 55%
    22:00 +13°C° 0 mm 2 mps 659 mmHg 57%
    23:00 +13°C° 0 mm 2 mps 659 mmHg 59%

    26 October, Thursday

    Time Temperature Precipitation Wind Pressure Humidity
    00:00 +12°C° 0 mm 1 mps 659 mmHg 63%
    01:00 +11°C° 0 mm 1 mps 658 mmHg 66%
    02:00 +11°C° 0 mm 1 mps 658 mmHg 70%
    03:00 +11°C° 0 mm 1 mps 658 mmHg 70%
    04:00 +11°C° 0 mm 1 mps 658 mmHg 71%
    05:00 +10°C° 0 mm 1 mps 658 mmHg 72%
    06:00 +11°C° 0 mm 1 mps 659 mmHg 68%
    07:00 +12°C° 0 mm 1 mps 659 mmHg 65%
    08:00 +13°C° 0 mm 1 mps 660 mmHg 62%
    09:00 +14°C° 0 mm 2 mps 660 mmHg 56%
    10:00 +16°C° 0 mm 2 mps 660 mmHg 50%
    11:00 +17°C° 0 mm 3 mps 660 mmHg 44%
    12:00 +17°C° 0 mm 3 mps 660 mmHg 42%
    13:00 +17°C° 0 mm 4 mps 660 mmHg 40%
    14:00 +18°C° 0 mm 4 mps 659 mmHg 37%
    15:00 +15°C° 0 mm 4 mps 659 mmHg 41%
    16:00 +14°C° 0 mm 3 mps 659 mmHg 44%
    17:00 +13°C° 0 mm 3 mps 659 mmHg 47%
    18:00 +13°C° 0 mm 2 mps 659 mmHg 52%
    19:00 +12°C° 0 mm 2 mps 659 mmHg 57%
    20:00 +11°C° 0 mm 1 mps 659 mmHg 61%
    21:00 +11°C° 0 mm 1 mps 659 mmHg 64%
    22:00 +10°C° 0 mm 1 mps 659 mmHg 68%
    23:00 +10°C° 0 mm 1 mps 659 mmHg 71%

    27 October, Friday

    Time Temperature Precipitation Wind Pressure Humidity
    00:00 +9°C° 0 mm 1 mps 659 mmHg 74%
    01:00 +8°C° 0 mm 0 mps 659 mmHg 77%
    02:00 +7°C° 0 mm 0 mps 659 mmHg 80%
    03:00 +7°C° 0 mm 0 mps 658 mmHg 81%
    04:00 +7°C° 0 mm 0 mps 658 mmHg 83%
    05:00 +6°C° 0 mm 0 mps 658 mmHg 85%
    06:00 +8°C° 0 mm 0 mps 659 mmHg 78%
    07:00 +9°C° 0 mm 0 mps 659 mmHg 71%
    08:00 +10°C° 0 mm 0 mps 660 mmHg 64%
    09:00 +12°C° 0 mm 0 mps 660 mmHg 57%
    10:00 +13°C° 0 mm 0 mps 660 mmHg 50%
    11:00 +15°C° 0 mm 1 mps 660 mmHg 44%
    12:00 +16°C° 0 mm 1 mps 660 mmHg 40%
    13:00 +18°C° 0 mm 1 mps 659 mmHg 37%
    14:00 +18°C° 0 mm 1 mps 659 mmHg 33%
    15:00 +16°C° 0 mm 1 mps 659 mmHg 36%
    16:00 +15°C° 0 mm 1 mps 658 mmHg 39%
    17:00 +14°C° 0 mm 1 mps 658 mmHg 41%
    18:00 +13°C° 0 mm 1 mps 658 mmHg 45%
    19:00 +12°C° 0 mm 1 mps 657 mmHg 48%
    20:00 +10°C° 0 mm 0 mps 657 mmHg 51%
    21:00 +10°C° 0 mm 0 mps 657 mmHg 53%
    22:00 +9°C° 0 mm 0 mps 657 mmHg 54%
    23:00 +9°C° 0 mm 0 mps 656 mmHg 55%
    Show more